Time,TemperatureF,DewpointF,PressureIn,WindDirection,WindDirectionDegrees,WindSpeedMPH,WindSpeedGustMPH,Humidity,HourlyPrecipIn,Conditions,Clouds,dailyrainin,SoftwareType,DateUTC
2013-02-23 00:03:00,38.0,37.0,-100.00,South,175,4.0,7.0,96,-99.99,,,-99.99,,2013-02-23 05:03:00,
2013-02-23 00:12:00,38.0,37.0,-100.00,South,175,4.0,6.0,96,-99.99,,,-99.99,,2013-02-23 05:12:00,
2013-02-23 00:22:00,38.0,37.0,-100.00,South,180,4.0,9.0,96,-99.99,,,-99.99,,2013-02-23 05:22:00,
2013-02-23 00:33:00,37.0,37.0,-100.00,SSW,195,5.0,9.0,96,-99.99,,,-99.99,,2013-02-23 05:33:00,
2013-02-23 00:42:00,37.0,37.0,-100.00,SSW,195,5.0,9.0,96,-99.99,,,-99.99,,2013-02-23 05:42:00,
2013-02-23 00:52:00,37.0,36.0,-100.00,South,180,1.0,4.0,96,-99.99,,,-99.99,,2013-02-23 05:52:00,
2013-02-23 01:02:00,36.0,35.0,-100.00,ESE,105,1.0,4.0,96,-99.99,,,-99.99,,2013-02-23 06:02:00,
2013-02-23 01:11:00,36.0,35.0,-100.00,SSE,150,1.0,3.0,96,-99.99,,,-99.99,,2013-02-23 06:11:00,
2013-02-23 01:23:00,36.0,35.0,-100.00,SE,135,1.0,2.0,96,-99.99,,,-99.99,,2013-02-23 06:23:00,
2013-02-23 01:32:00,35.0,35.0,-100.00,ESE,105,0.0,4.0,96,-99.99,,,-99.99,,2013-02-23 06:32:00,
2013-02-23 01:42:00,35.0,34.0,-100.00,SE,130,1.0,4.0,96,-99.99,,,-99.99,,2013-02-23 06:42:00,
2013-02-23 01:51:00,35.0,34.0,-100.00,ENE,65,1.0,4.0,96,-99.99,,,-99.99,,2013-02-23 06:51:00,
2013-02-23 02:01:00,35.0,34.0,-100.00,ENE,65,1.0,4.0,96,-99.99,,,-99.99,,2013-02-23 07:01:00,
2013-02-23 02:11:00,35.0,35.0,-100.00,East,85,1.0,1.0,96,-99.99,,,-99.99,,2013-02-23 07:11:00,
2013-02-23 02:21:00,36.0,35.0,-100.00,South,190,2.0,4.0,96,-99.99,,,-99.99,,2013-02-23 07:21:00,
2013-02-23 02:32:00,36.0,35.0,-100.00,ENE,70,0.0,4.0,96,-99.99,,,-99.99,,2013-02-23 07:32:00,
2013-02-23 02:42:00,36.0,35.0,-100.00,East,90,1.0,4.0,96,-99.99,,,-99.99,,2013-02-23 07:42:00,
2013-02-23 02:51:00,36.0,35.0,-100.00,East,90,1.0,4.0,96,-99.99,,,-99.99,,2013-02-23 07:51:00,
2013-02-23 03:01:00,36.0,35.0,-100.00,SE,135,2.0,3.0,96,-99.99,,,-99.99,,2013-02-23 08:01:00,
2013-02-23 03:11:00,35.0,35.0,-100.00,ESE,115,1.0,3.0,96,-99.99,,,-99.99,,2013-02-23 08:11:00,
2013-02-23 03:21:00,35.0,35.0,-100.00,ESE,110,1.0,2.0,96,-99.99,,,-99.99,,2013-02-23 08:21:00,
2013-02-23 03:32:00,35.0,35.0,-100.00,ESE,105,1.0,3.0,96,-99.99,,,-99.99,,2013-02-23 08:32:00,
2013-02-23 03:42:00,35.0,35.0,-100.00,East,95,1.0,3.0,96,-99.99,,,-99.99,,2013-02-23 08:42:00,
2013-02-23 03:52:00,35.0,35.0,-100.00,SE,145,0.0,2.0,96,-99.99,,,-99.99,,2013-02-23 08:52:00,
2013-02-23 04:02:00,35.0,35.0,-100.00,East,95,1.0,2.0,96,-99.99,,,-99.99,,2013-02-23 09:02:00,
2013-02-23 04:11:00,35.0,35.0,-100.00,East,100,1.0,4.0,96,-99.99,,,-99.99,,2013-02-23 09:11:00,
2013-02-23 04:32:00,35.0,35.0,-100.00,SE,130,0.0,2.0,96,-99.99,,,-99.99,,2013-02-23 09:32:00,
2013-02-23 04:51:00,35.0,35.0,-100.00,ESE,110,1.0,5.0,96,-99.99,,,-99.99,,2013-02-23 09:51:00,
2013-02-23 05:01:00,35.0,35.0,-100.00,SSE,160,1.0,7.0,96,-99.99,,,-99.99,,2013-02-23 10:01:00,
2013-02-23 05:11:00,35.0,35.0,-100.00,East,85,2.0,6.0,96,-99.99,,,-99.99,,2013-02-23 10:11:00,
2013-02-23 05:21:00,35.0,35.0,-100.00,ESE,105,2.0,4.0,96,-99.99,,,-99.99,,2013-02-23 10:21:00,
2013-02-23 05:32:00,36.0,35.0,-100.00,ESE,115,1.0,6.0,96,-99.99,,,-99.99,,2013-02-23 10:32:00,
2013-02-23 05:42:00,35.0,35.0,-100.00,SE,125,2.0,6.0,96,-99.99,,,-99.99,,2013-02-23 10:42:00,
2013-02-23 05:51:00,36.0,35.0,-100.00,South,180,4.0,9.0,96,-99.99,,,-99.99,,2013-02-23 10:51:00,
2013-02-23 06:02:00,36.0,35.0,-100.00,South,175,2.0,6.0,96,-99.99,,,-99.99,,2013-02-23 11:02:00,
2013-02-23 06:11:00,36.0,35.0,-100.00,SSE,165,2.0,7.0,96,-99.99,,,-99.99,,2013-02-23 11:11:00,
2013-02-23 06:22:00,36.0,35.0,-100.00,SSE,160,1.0,3.0,96,-99.99,,,-99.99,,2013-02-23 11:22:00,
2013-02-23 06:32:00,36.0,35.0,-100.00,SSE,165,1.0,6.0,96,-99.99,,,-99.99,,2013-02-23 11:32:00,
2013-02-23 06:42:00,36.0,35.0,-100.00,South,175,3.0,6.0,96,-99.99,,,-99.99,,2013-02-23 11:42:00,
2013-02-23 06:52:00,36.0,35.0,-100.00,South,190,2.0,9.0,96,-99.99,,,-99.99,,2013-02-23 11:52:00,
2013-02-23 07:02:00,36.0,36.0,-100.00,SSW,195,7.0,11.0,96,-99.99,,,-99.99,,2013-02-23 12:02:00,
2013-02-23 07:11:00,37.0,36.0,-100.00,SSW,200,6.0,12.0,96,-99.99,,,-99.99,,2013-02-23 12:11:00,
2013-02-23 07:21:00,37.0,36.0,-100.00,SSW,200,9.0,12.0,96,-99.99,,,-99.99,,2013-02-23 12:21:00,
2013-02-23 07:32:00,37.0,36.0,-100.00,SSW,195,6.0,12.0,96,-99.99,,,-99.99,,2013-02-23 12:32:00,
2013-02-23 07:42:00,37.0,36.0,-100.00,SW,220,5.0,11.0,96,-99.99,,,-99.99,,2013-02-23 12:42:00,
2013-02-23 07:52:00,37.0,36.0,-100.00,SW,230,7.0,12.0,96,-99.99,,,-99.99,,2013-02-23 12:52:00,
2013-02-23 08:01:00,37.0,36.0,-100.00,SW,230,7.0,12.0,96,-99.99,,,-99.99,,2013-02-23 13:01:00,
2013-02-23 08:11:00,37.0,36.0,-100.00,SW,225,7.0,12.0,96,-99.99,,,-99.99,,2013-02-23 13:11:00,
2013-02-23 08:22:00,37.0,36.0,-100.00,WSW,245,6.0,12.0,96,-99.99,,,-99.99,,2013-02-23 13:22:00,
2013-02-23 08:32:00,37.0,36.0,-100.00,SSW,200,6.0,9.0,96,-99.99,,,-99.99,,2013-02-23 13:32:00,
2013-02-23 08:42:00,37.0,36.0,-100.00,SW,220,7.0,10.0,96,-99.99,,,-99.99,,2013-02-23 13:42:00,
2013-02-23 08:52:00,37.0,36.0,-100.00,West,265,11.0,17.0,96,-99.99,,,-99.99,,2013-02-23 13:52:00,
2013-02-23 09:02:00,36.0,35.0,-100.00,West,265,4.0,12.0,96,-99.99,,,-99.99,,2013-02-23 14:02:00,
2013-02-23 09:11:00,36.0,35.0,-100.00,West,265,3.0,7.0,96,-99.99,,,-99.99,,2013-02-23 14:11:00,
2013-02-23 09:21:00,36.0,35.0,-100.00,WSW,255,6.0,12.0,96,-99.99,,,-99.99,,2013-02-23 14:21:00,
2013-02-23 09:32:00,36.0,35.0,-100.00,West,265,5.0,11.0,96,-99.99,,,-99.99,,2013-02-23 14:32:00,
2013-02-23 09:42:00,36.0,35.0,-100.00,SW,235,6.0,10.0,96,-99.99,,,-99.99,,2013-02-23 14:42:00,
2013-02-23 09:52:00,35.0,35.0,-100.00,West,260,6.0,10.0,96,-99.99,,,-99.99,,2013-02-23 14:52:00,
2013-02-23 10:02:00,35.0,34.0,-100.00,West,280,7.0,10.0,96,-99.99,,,-99.99,,2013-02-23 15:02:00,
2013-02-23 10:11:00,35.0,34.0,-100.00,WSW,245,5.0,10.0,96,-99.99,,,-99.99,,2013-02-23 15:11:00,
2013-02-23 10:22:00,35.0,34.0,-100.00,SW,215,4.0,7.0,96,-99.99,,,-99.99,,2013-02-23 15:22:00,
2013-02-23 10:32:00,35.0,34.0,-100.00,West,270,3.0,6.0,96,-99.99,,,-99.99,,2013-02-23 15:32:00,
2013-02-23 10:42:00,35.0,34.0,-100.00,WNW,300,5.0,11.0,96,-99.99,,,-99.99,,2013-02-23 15:42:00,
2013-02-23 10:51:00,34.0,33.0,-100.00,West,260,6.0,11.0,96,-99.99,,,-99.99,,2013-02-23 15:51:00,
2013-02-23 11:01:00,34.0,33.0,-100.00,WSW,245,5.0,9.0,96,-99.99,,,-99.99,,2013-02-23 16:01:00,
2013-02-23 11:11:00,34.0,33.0,-100.00,NW,315,6.0,11.0,96,-99.99,,,-99.99,,2013-02-23 16:11:00,
2013-02-23 11:21:00,34.0,33.0,-100.00,West,260,5.0,6.0,96,-99.99,,,-99.99,,2013-02-23 16:21:00,
2013-02-23 11:32:00,33.0,32.0,-100.00,NW,305,6.0,9.0,96,-99.99,,,-99.99,,2013-02-23 16:32:00,
2013-02-23 11:42:00,33.0,32.0,-100.00,WSW,250,4.0,9.0,96,-99.99,,,-99.99,,2013-02-23 16:42:00,
2013-02-23 11:51:00,33.0,33.0,-100.00,West,260,4.0,9.0,96,-99.99,,,-99.99,,2013-02-23 16:51:00,
2013-02-23 12:01:00,34.0,33.0,-100.00,NW,320,4.0,9.0,96,-99.99,,,-99.99,,2013-02-23 17:01:00,
2013-02-23 12:11:00,34.0,33.0,-100.00,West,280,4.0,7.0,96,-99.99,,,-99.99,,2013-02-23 17:11:00,
2013-02-23 12:21:00,34.0,33.0,-100.00,NW,315,3.0,7.0,95,-99.99,,,-99.99,,2013-02-23 17:21:00,
2013-02-23 12:32:00,34.0,33.0,-100.00,West,280,4.0,7.0,95,-99.99,,,-99.99,,2013-02-23 17:32:00,
2013-02-23 12:42:00,34.0,33.0,-100.00,WNW,290,2.0,7.0,95,-99.99,,,-99.99,,2013-02-23 17:42:00,
2013-02-23 12:52:00,34.0,33.0,-100.00,West,280,6.0,8.0,94,-99.99,,,-99.99,,2013-02-23 17:52:00,
2013-02-23 13:02:00,35.0,33.0,-100.00,WSW,245,3.0,9.0,93,-99.99,,,-99.99,,2013-02-23 18:02:00,
2013-02-23 13:12:00,35.0,33.0,-100.00,WSW,240,4.0,12.0,92,-99.99,,,-99.99,,2013-02-23 18:12:00,
2013-02-23 13:22:00,35.0,33.0,-100.00,SW,235,6.0,12.0,91,-99.99,,,-99.99,,2013-02-23 18:22:00,
2013-02-23 13:32:00,35.0,33.0,-100.00,SW,235,7.0,12.0,90,-99.99,,,-99.99,,2013-02-23 18:32:00,
2013-02-23 13:42:00,35.0,33.0,-100.00,SW,235,7.0,12.0,90,-99.99,,,-99.99,,2013-02-23 18:42:00,
2013-02-23 13:52:00,36.0,32.0,-100.00,West,270,6.0,12.0,87,-99.99,,,-99.99,,2013-02-23 18:52:00,
2013-02-23 14:01:00,36.0,32.0,-100.00,WSW,240,9.0,12.0,86,-99.99,,,-99.99,,2013-02-23 19:01:00,
2013-02-23 14:11:00,36.0,32.0,-100.00,SSW,210,9.0,12.0,85,-99.99,,,-99.99,,2013-02-23 19:11:00,
2013-02-23 14:21:00,36.0,32.0,-100.00,SW,235,7.0,11.0,84,-99.99,,,-99.99,,2013-02-23 19:21:00,
2013-02-23 14:32:00,36.0,32.0,-100.00,SW,230,7.0,12.0,83,-99.99,,,-99.99,,2013-02-23 19:32:00,
2013-02-23 14:41:00,37.0,32.0,-100.00,SW,215,6.0,12.0,83,-99.99,,,-99.99,,2013-02-23 19:41:00,
2013-02-23 14:52:00,37.0,32.0,-100.00,SSW,205,11.0,15.0,83,-99.99,,,-99.99,,2013-02-23 19:52:00,
2013-02-23 15:01:00,37.0,32.0,-100.00,SSW,200,10.0,15.0,82,-99.99,,,-99.99,,2013-02-23 20:01:00,
2013-02-23 15:11:00,37.0,32.0,-100.00,SW,225,6.0,12.0,81,-99.99,,,-99.99,,2013-02-23 20:11:00,
2013-02-23 15:21:00,37.0,31.0,-100.00,WSW,240,9.0,14.0,81,-99.99,,,-99.99,,2013-02-23 20:21:00,
2013-02-23 15:32:00,37.0,31.0,-100.00,WSW,240,8.0,11.0,80,-99.99,,,-99.99,,2013-02-23 20:32:00,
2013-02-23 15:42:00,37.0,31.0,-100.00,SW,225,9.0,11.0,80,-99.99,,,-99.99,,2013-02-23 20:42:00,
2013-02-23 15:52:00,36.0,31.0,-100.00,WSW,255,7.0,12.0,79,-99.99,,,-99.99,,2013-02-23 20:52:00,
2013-02-23 16:02:00,37.0,31.0,-100.00,SW,220,9.0,11.0,79,-99.99,,,-99.99,,2013-02-23 21:02:00,
2013-02-23 16:11:00,37.0,31.0,-100.00,SW,235,7.0,12.0,79,-99.99,,,-99.99,,2013-02-23 21:11:00,
2013-02-23 16:22:00,36.0,31.0,-100.00,WSW,250,4.0,13.0,79,-99.99,,,-99.99,,2013-02-23 21:22:00,
2013-02-23 16:32:00,36.0,30.0,-100.00,West,260,6.0,9.0,78,-99.99,,,-99.99,,2013-02-23 21:32:00,
2013-02-23 16:42:00,37.0,31.0,-100.00,WSW,250,3.0,7.0,78,-99.99,,,-99.99,,2013-02-23 21:42:00,
2013-02-23 16:51:00,36.0,30.0,-100.00,West,275,5.0,9.0,78,-99.99,,,-99.99,,2013-02-23 21:51:00,
2013-02-23 17:02:00,36.0,30.0,-100.00,WNW,285,5.0,9.0,78,-99.99,,,-99.99,,2013-02-23 22:02:00,
2013-02-23 17:11:00,36.0,30.0,-100.00,SW,220,6.0,9.0,79,-99.99,,,-99.99,,2013-02-23 22:11:00,
2013-02-23 17:22:00,36.0,30.0,-100.00,WSW,250,5.0,8.0,79,-99.99,,,-99.99,,2013-02-23 22:22:00,
2013-02-23 17:32:00,36.0,30.0,-100.00,WSW,240,4.0,9.0,79,-99.99,,,-99.99,,2013-02-23 22:32:00,
2013-02-23 17:42:00,36.0,31.0,-100.00,West,265,3.0,9.0,80,-99.99,,,-99.99,,2013-02-23 22:42:00,
2013-02-23 17:51:00,35.0,30.0,-100.00,NW,320,2.0,6.0,83,-99.99,,,-99.99,,2013-02-23 22:51:00,
2013-02-23 18:01:00,35.0,31.0,-100.00,ENE,75,1.0,4.0,85,-99.99,,,-99.99,,2013-02-23 23:01:00,
2013-02-23 18:11:00,34.0,31.0,-100.00,NW,315,1.0,4.0,86,-99.99,,,-99.99,,2013-02-23 23:11:00,
2013-02-23 18:21:00,34.0,31.0,-100.00,NNW,345,2.0,4.0,87,-99.99,,,-99.99,,2013-02-23 23:21:00,
2013-02-23 18:32:00,34.0,31.0,-100.00,NW,315,3.0,5.0,87,-99.99,,,-99.99,,2013-02-23 23:32:00,
2013-02-23 18:42:00,34.0,31.0,-100.00,West,260,1.0,5.0,88,-99.99,,,-99.99,,2013-02-23 23:42:00,
2013-02-23 18:52:00,34.0,31.0,-100.00,NNE,15,0.0,4.0,89,-99.99,,,-99.99,,2013-02-23 23:52:00,
2013-02-23 19:01:00,33.0,31.0,-100.00,NNE,25,1.0,3.0,89,-99.99,,,-99.99,,2013-02-24 00:01:00,
2013-02-23 19:11:00,33.0,31.0,-100.00,ENE,75,1.0,3.0,90,-99.99,,,-99.99,,2013-02-24 00:11:00,
2013-02-23 19:22:00,33.0,31.0,-100.00,NE,40,4.0,6.0,91,-99.99,,,-99.99,,2013-02-24 00:22:00,
2013-02-23 19:32:00,33.0,31.0,-100.00,NE,45,1.0,3.0,91,-99.99,,,-99.99,,2013-02-24 00:32:00,
2013-02-23 19:42:00,33.0,31.0,-100.00,NW,310,3.0,5.0,91,-99.99,,,-99.99,,2013-02-24 00:42:00,
2013-02-23 19:52:00,33.0,31.0,-100.00,NW,315,2.0,6.0,92,-99.99,,,-99.99,,2013-02-24 00:52:00,
2013-02-23 20:01:00,33.0,31.0,-100.00,NNW,335,1.0,4.0,92,-99.99,,,-99.99,,2013-02-24 01:01:00,
2013-02-23 20:11:00,33.0,31.0,-100.00,NW,320,3.0,4.0,92,-99.99,,,-99.99,,2013-02-24 01:11:00,
2013-02-23 20:22:00,33.0,31.0,-100.00,NNW,330,3.0,5.0,92,-99.99,,,-99.99,,2013-02-24 01:22:00,
2013-02-23 20:32:00,33.0,31.0,-100.00,NNW,340,2.0,4.0,92,-99.99,,,-99.99,,2013-02-24 01:32:00,
2013-02-23 20:42:00,33.0,31.0,-100.00,NW,325,4.0,6.0,92,-99.99,,,-99.99,,2013-02-24 01:42:00,
2013-02-23 20:51:00,33.0,31.0,-100.00,NW,310,4.0,5.0,92,-99.99,,,-99.99,,2013-02-24 01:51:00,
2013-02-23 21:01:00,33.0,31.0,-100.00,NW,310,4.0,7.0,92,-99.99,,,-99.99,,2013-02-24 02:01:00,
2013-02-23 21:11:00,33.0,31.0,-100.00,NW,310,4.0,7.0,92,-99.99,,,-99.99,,2013-02-24 02:11:00,
2013-02-23 21:21:00,32.0,31.0,-100.00,NW,305,4.0,7.0,92,-99.99,,,-99.99,,2013-02-24 02:21:00,
2013-02-23 21:32:00,32.0,31.0,-100.00,NNW,335,5.0,7.0,93,-99.99,,,-99.99,,2013-02-24 02:32:00,
2013-02-23 21:42:00,32.0,31.0,-100.00,NW,315,3.0,6.0,93,-99.99,,,-99.99,,2013-02-24 02:42:00,
2013-02-23 21:52:00,32.0,30.0,-100.00,NW,305,4.0,7.0,93,-99.99,,,-99.99,,2013-02-24 02:52:00,
2013-02-23 22:02:00,32.0,31.0,-100.00,WNW,300,1.0,6.0,93,-99.99,,,-99.99,,2013-02-24 03:02:00,
2013-02-23 22:11:00,32.0,30.0,-100.00,NW,305,2.0,9.0,93,-99.99,,,-99.99,,2013-02-24 03:11:00,
2013-02-23 22:22:00,32.0,30.0,-100.00,NW,320,4.0,7.0,93,-99.99,,,-99.99,,2013-02-24 03:22:00,
2013-02-23 22:32:00,32.0,30.0,-100.00,West,260,2.0,6.0,92,-99.99,,,-99.99,,2013-02-24 03:32:00,
2013-02-23 22:42:00,32.0,30.0,-100.00,WNW,285,4.0,9.0,92,-99.99,,,-99.99,,2013-02-24 03:42:00,
2013-02-23 22:52:00,32.0,30.0,-100.00,West,270,3.0,7.0,92,-99.99,,,-99.99,,2013-02-24 03:52:00,
2013-02-23 23:02:00,32.0,30.0,-100.00,West,260,3.0,9.0,91,-99.99,,,-99.99,,2013-02-24 04:02:00,
2013-02-23 23:11:00,32.0,29.0,-100.00,WNW,300,6.0,9.0,91,-99.99,,,-99.99,,2013-02-24 04:11:00,
2013-02-23 23:21:00,31.0,29.0,-100.00,WNW,290,4.0,11.0,91,-99.99,,,-99.99,,2013-02-24 04:21:00,
2013-02-23 23:32:00,31.0,29.0,-100.00,WSW,250,5.0,7.0,90,-99.99,,,-99.99,,2013-02-24 04:32:00,
2013-02-23 23:42:00,31.0,29.0,-100.00,WNW,285,4.0,11.0,90,-99.99,,,-99.99,,2013-02-24 04:42:00,
2013-02-23 23:52:00,31.0,29.0,-100.00,WNW,285,3.0,11.0,89,-99.99,,,-99.99,,2013-02-24 04:52:00,